Weather in Lantrativka

Ukraine / Luhansk Region     49°57′53″N   38°14′38″E
temp.,
°C
wind,
m/s
gust,
m/s
humid.,
%
clouds,
%
prec.,
mm/h
press.,
hPa
HPBL,
m
8 march, mon
mon823:00−1wsw91583100 0.1 1010982
02:00−1wsw81379100 0.1 1009976
05:00−1wsw81483100 0.1 1008746
08:000wsw8127799 0.2 1008839
11:00+1wsw81170100 0.0 10081062
14:00+2wsw81070100 0.1 10081129
17:000nw4793100 0.8 1008407
20:00−1wnw2495100 3.4 1010258
9 march, tue
tue923:00−3w349197 0.3 1010106
02:00−3wnw249596 0.5 1011255
05:00−5w359487 0.1 1012144
08:00−3nw578578 0.5 1013765
11:00−2nw677399 0.1 10141053
14:00−3nw6763100 0.3 10161282
17:00−4nnw5772100 0.1 1018908
20:00−6nnw5777100 0.1 1021782
10 march, wed
wed1023:00−8nnw577477 0.0 1022770
02:00−9nnw467439 0.0 1024761
05:00−9nw368155 0.0 1025658
08:00−8nnw467344 0.0 1027776
11:00−6nnw465821 0.0 1027902
14:00−5nnw455012 0.0 10271026
17:00−6nnw34576 0.0 1027418
20:00−8ne25703 0.0 1028238
11 march, thu
thu1123:00−9ne357512 0.0 1029361
02:00−11ne457329 0.0 1030373
05:00−12ene467322 0.0 1031395
08:00−12ene466411 0.0 1032433
11:00−9ene45440 0.0 1032740
14:00−8e34395 0.0 10321003
17:00−9ene344642 0.0 1031784
20:00−10e365722 0.0 1032464
12 march, fri
fri1223:00−11e36620 0.0 1033433
02:00−12e36660 0.0 1033322
05:00−12ese25700 0.0 1034224
08:00−11se46540 0.0 1034431
11:00−7sse45350 0.0 1034816
14:00−5sse463119 0.0 10321014
17:00−5sse473897 0.0 1031550
20:00−6sse4104187 0.0 1032501